Regional Weather Roundup
Issued by NWS

Home | Current Version | Previous Version | Graphics & Text | Print | Product List | Glossary On
Versions: 1 2 3 4 5 6 7 8 9 10 11 12 13 14 15 16 17 18 19 20 21 22 23 24 25 26 27
000
ASUS45 KBOU 252107
RWRCO

WEATHER ROUNDUP FOR COLORADO
NATIONAL WEATHER SERVICE DENVER/BOULDER CO
300 PM MDT TUE JUL 25 2017

NOTE: "FAIR" INDICATES FEW OR NO CLOUDS BELOW 12000 FEET WITH NO
SIGNIFICANT WEATHER AND/OR OBSTRUCTIONS TO VISIBILITY.

COZ001>005-013-030-031-252200-
...NORTHWEST COLORADO...

CITY           SKY/WX    TMP DP  RH WIND       PRES   REMARKS
CRAIG          CLOUDY    74  56  53 NW8       30.24R
HAYDEN         PTSUNNY   64  55  72 CALM      30.27R
MEEKER         LGT RAIN  69  61  75 CALM      30.24S
RABBIT EARS PA CLOUDY    57  50  77 CALM      30.53F
STEAMBOAT SPGS CLOUDY    71  51  49 S3        30.27R
WALDEN         CLOUDY    64  52  63 SE5       30.36S
$$

COZ006>008-011-252200-
...WEST CENTRAL VALLEYS...

CITY           SKY/WX    TMP DP  RH WIND       PRES   REMARKS
GRAND JUNCTION LGT RAIN  71  66  84 NW7       30.15R
MONTROSE       FAIR      81  57  43 SE14      30.19F
EAGLE          PTSUNNY   75  55  50 W14       30.24
RIFLE          PTSUNNY   79  57  46 W8        30.17F
DELTA          PTSUNNY   85  53  33 SW6       30.15S
NUCLA          NOT AVBL
$$

COZ017>023-064>068-252200-
...SOUTHWEST COLORADO...

CITY           SKY/WX    TMP DP  RH WIND       PRES   REMARKS
DURANGO        FAIR      79  51  37 VRB3      30.26F
CORTEZ         PTSUNNY   80  57  45 SW7       30.21S
PAGOSA SPRINGS CLOUDY    78  46  31 S7        30.34F
TELLURIDE      RAIN      63  55  76 W7        30.46S
WOLF CREEK PAS PTSUNNY   55  52  88 S14G24    30.70S
$$

COZ009-010-012-014-032>034-037-058>063-252200-
...CENTRAL COLORADO...

CITY           SKY/WX    TMP DP  RH WIND       PRES   REMARKS
ASPEN          PTSUNNY   72  54  53 SE13      30.31R
BUENA VISTA    FAIR      73  49  42 SE8       30.32R
COPPER MTN     LGT RAIN  55  45  67 SW7       30.66F
BERTHOUD PASS  TSTM      52  36  54 NW7       30.68F
COTTONWOOD PAS PTSUNNY   68  50  52 SE7       30.48S
GUNNISON       FAIR      76  51  41 VRB6      30.30S
KREMMLING      PTSUNNY   82  48  30 W10       30.28F
LEADVILLE      PTSUNNY   67  45  45 VRB6      30.46S
MONARCH PASS     N/A     52  48  87 NW12      30.75F
SALIDA         CLOUDY    71  56  60 NW20G30   30.36R
SUNLIGHT       LGT RAIN  54  50  87 CALM      30.58S
WILKERSON PASS PTSUNNY   64  46  52 SW8G18    30.62S THUNDER
$$

COZ069>075-252200-
...SAN LUIS VALLEY/SANGRE DE CRISTO MOUNTAINS...

CITY           SKY/WX    TMP DP  RH WIND       PRES   REMARKS
ALAMOSA        TSTM      66  60  81 S13G21    30.33R
DEL NORTE      FAIR      76  56  48 SE10      30.33F
LA VETA PASS   NOT AVBL
SAGUACHE         N/A    N/A N/A N/A MISG        N/A
$$

COZ035-036-038>040-252200-
...NORTHERN COLORADO FRONT RANGE...

CITY           SKY/WX    TMP DP  RH WIND       PRES   REMARKS
DENVER INTL AP PTSUNNY   91  46  21 VRB3      30.06F
DMNS CITY PARK   N/A     85  46  25 SW10G18   30.07R
AURORA         PTSUNNY   88  48  25 S5        30.09F
FRONT RANGE AP FAIR      91  45  19 W6        30.08F
ERIE MUNI ARPT FAIR      90  44  20 N7        30.04F
BOULDER MUN AP FAIR      91  46  21 NE12      30.05F
CENTENNIAL     PTSUNNY   86  45  23 CALM      30.11F
BROOMFIELD     LGT RAIN  88  45  22 CALM      30.10S
FORT COLLINS   FAIR      90  48  23 VRB5      30.05F
LONGMONT       FAIR      92  50  23 N8        30.06F
$$

COZ041-046-047-076>085-087-088-252200-
...PIKES PEAK/PALMER DIVIDE AND SOUTHERN FOOTHILLS...

CITY           SKY/WX    TMP DP  RH WIND       PRES   REMARKS
COLO. SPRINGS  PTSUNNY   87  53  31 S14       30.14F
A. F. ACADEMY  PTSUNNY   84  49  29 SE6       30.16F
SCHRIEVER AFB  FAIR      88  47  23 SW16G26   30.15F
CHEYENNE MTN   PTSUNNY   83  47  27 N8        30.15F
ELLICOTT       FAIR       0  32 100 W8        30.13  WCI -14
FALCON           N/A     83  46  26 SW12G22   30.22S
FORT CARSON    FAIR      91  49  24 S16       30.10F
LIMON          FAIR      89  47  23 VRB5      30.07F
MONUMENT HILL  PTSUNNY   77  52  41 NW14      30.24F
CANON CITY     MOSUNNY   93  55  27 CALM      30.07F
WALSENBURG     CLOUDY    86  52  30 E15G22    30.13F
TRINIDAD       FAIR      92  48  22 MISG      30.11F
$$

COZ042>045-048>051-090-091-252200-
...NORTHEAST COLORADO...

CITY           SKY/WX    TMP DP  RH WIND       PRES   REMARKS
GREELEY ARPT   FAIR      91  54  28 NW6       30.03F
AKRON          FAIR      95  43  16 W18G24    30.00F
BURLINGTON     FAIR      98  59  27 S13       30.00F
WRAY           NOT AVBL
YUMA           FAIR      97  54  23 S8G17     29.95F
STERLING       FAIR      97  54  23 S12       29.93F
HOLYOKE        FAIR      99  59  26 S17       29.93F
FORT MORGAN    FAIR      93  44  18 SW7       30.01F
$$

COZ086-089-092>099-252200-
...SOUTHEAST COLORADO...

CITY           SKY/WX    TMP DP  RH WIND       PRES   REMARKS
PUEBLO         FAIR      98  49  18 VRB7      30.00F
LA JUNTA       FAIR      99  53  21 E9        29.98F
LAMAR          FAIR      98  58  26 S7        29.93F
SPRINGFIELD      N/A     97  57  26 S23G30    30.02F
$$




USA.gov is the U.S. government's official web portal to all federal, state and local government web resources and services.